Location: Erfurt
(50.9688°N, 11.0193°E)
Time: 22:57:50
(UTC+01:00)

ISS - Pass Details

Date: 06 January 2018
Orbit: 402 x 407 km, 51.6° (Epoch: 18 January)

Event Time Altitude Azimuth Distance (km) Brightness Sun altitude
Exits shadow 05:13:40 19° 79° (E) 1,035 -1.1 -27.9°
Drops below altitude 10° 05:14:45 10° 79° (ENE) 1,471 -0.1 -27.7°
Sets 05:16:51 0° 78° (ENE) 2,333 1.2 -27.4°
